EW9931 Weather Reports


Display with metric or nautical units.
time (UTC)temp
F
wind
direction
speed
MPH
gust
MPH
rain 1hr
in
rain 24hr
in
rain mn
in
humidity
%
barometer
mb
20260504034511 38 217 2.0 0.0 0.00 0.00 0.00 84 1003.0
20260504033012 38 176 2.0 0.0 0.00 0.00 0.00 84 1002.6
20260504031511 38 213 4.0 0.0 0.00 0.00 0.00 83 1002.5
20260504030005 39 217 5.0 0.0 0.00 0.00 0.00 81 1002.6
20260504024502 40 172 5.0 0.0 0.00 0.00 0.00 80 1002.4
20260504023059 40 144 4.0 0.0 0.00 0.00 0.00 75 1002.0
20260504021557 41 172 2.0 0.0 0.00 0.00 0.00 75 1001.9
20260504020104 42 196 4.0 0.0 0.00 0.00 0.00 71 1001.8
20260504014550 44 124 2.0 0.0 0.00 0.00 0.00 68 1002.0
20260504013052 45 134 1.0 0.0 0.00 0.00 0.00 66 1001.8
20260504011544 47 208 3.0 0.0 0.00 0.00 0.00 62 1001.6
20260504010052 52 209 2.0 0.0 0.00 0.00 0.00 45 1000.6
20260504004545 51 169 2.0 0.0 0.00 0.00 0.00 43 1000.8
20260504003042 51 140 3.0 0.0 0.00 0.00 0.00 51 1001.1
20260504001541 50 226 4.0 0.0 0.00 0.00 0.00 54 1001.1
20260504000038 52 233 4.0 0.0 0.00 0.00 0.00 47 1000.3
20260503234541 55 134 1.0 0.0 0.00 0.00 0.00 41 1000.0
20260503233038 55 133 2.0 0.0 0.00 0.00 0.00 42 1000.2
20260503231537 53 147 3.0 0.0 0.00 0.00 0.00 47 1000.8
20260503230050 54 157 2.0 0.0 0.00 0.00 0.00 48 1000.9
20260503224535 53 199 3.0 0.0 0.00 0.00 0.00 43 1001.2
20260503223035 53 112 3.0 0.0 0.00 0.00 0.00 43 1001.5
20260503221538 53 247 2.0 0.0 0.00 0.00 0.00 44 1001.6
20260503220037 52 308 3.0 0.0 0.00 0.00 0.00 45 1001.6
20260503214546 54 226 3.0 0.0 0.00 0.00 0.00 43 1001.2
20260503213035 53 210 3.0 0.0 0.00 0.00 0.00 36 1001.5
20260503211532 54 270 4.0 0.0 0.00 0.00 0.00 34 1001.3
20260503210031 56 299 3.0 0.0 0.00 0.00 0.00 32 1000.9
20260503204536 56 230 2.0 0.0 0.00 0.00 0.00 29 1000.8
20260503203030 57 210 2.0 0.0 0.00 0.00 0.00 27 1000.4
20260503201528 57 147 2.0 0.0 0.00 0.00 0.00 26 1001.1
20260503200029 57 110 3.0 0.0 0.00 0.00 0.00 27 1001.3
20260503194527 57 191 2.0 0.0 0.00 0.00 0.00 27 1001.5
20260503193024 55 123 3.0 0.0 0.00 0.00 0.00 29 1002.1
20260503191522 54 196 3.0 0.0 0.00 0.00 0.00 31 1002.4
20260503190031 54 232 2.0 0.0 0.00 0.00 0.00 30 1002.6
20260503184521 55 219 2.0 0.0 0.00 0.00 0.00 31 1002.5
20260503183020 54 165 3.0 0.0 0.00 0.00 0.00 30 1002.8
20260503181537 54 202 2.0 0.0 0.00 0.00 0.00 29 1002.8
20260503180031 54 112 3.0 0.0 0.00 0.00 0.00 28 1002.8
20260503174517 54 232 3.0 0.0 0.00 0.00 0.00 27 1002.8
20260503173016 54 128 2.0 0.0 0.00 0.00 0.00 26 1002.9
20260503171523 53 222 2.0 0.0 0.00 0.00 0.00 25 1002.9
20260503120105 48 120 0.0 0.0 0.00 0.00 0.00 28 1000.8
20260503110122 49 114 0.0 0.0 0.00 0.00 0.00 28 1000.7
20260503081535 49 141 0.0 0.0 0.00 0.00 0.00 44 1001.3
20260503071532 50 137 0.0 0.0 0.00 0.00 0.00 44 1002.1
20260503054535 51 127 0.0 0.0 0.00 0.00 0.00 44 1003.5
20260503053028 51 154 0.0 0.0 0.00 0.00 0.00 45 1003.5
20260503051526 51 102 0.0 0.0 0.00 0.00 0.00 46 1003.6
20260503050029 51 144 0.0 0.0 0.00 0.00 0.00 50 1004.1
20260503044527 51 144 0.0 0.0 0.00 0.00 0.00 54 1004.1
20260503043026 51 144 0.0 0.0 0.00 0.00 0.00 56 1003.9
20260503041525 51 144 0.0 0.0 0.00 0.00 0.00 55 1003.8
20260503040030 51 144 0.0 0.0 0.00 0.00 0.00 54 1004.1